Voltar ao catálogo

STARLINK-5516

AtivoComunicaçõesVLEO
NORAD 57253·PAYLOAD·🇺🇸 United States

Lançado Jul 7, 2023 de Vandenberg Space Force Base

Loading…

Próximas Passagens (próximas 24 horas)

TLE

AtualizadoSource: CelesTrak SupGP

Época: Sep 15, 2026, 01:59 UTC

1 57253C 23094AM  26258.08312500 -.00031957  00000+0 -11574-2 0  2586
2 57253  43.0024  30.1786 0001464 270.1816 196.8956 15.27596414    11

Acompanhe STARLINK-5516 em tempo real com AllMySat

Download on the App Store